GW5571 Weather Reports


time (UTC)temp
C
wind
direction
speed
KPH
gust
KPH
rain 1hr
cm
rain 24hr
cm
rain mn
cm
humidity
%
barometer
mb
20260505065627 15 134 4.8 4.8 0.00 0.00 0.00 73 1010.6
20260505065124 15 156 0.0 0.0 0.00 0.00 0.00 73 1010.6
20260505064621 15 154 0.0 1.6 0.00 0.00 0.00 73 1010.5
20260505064120 15 163 0.0 1.6 0.00 0.00 0.00 72 1010.5
20260505063617 15 193 1.6 4.8 0.00 0.00 0.00 72 1010.4
20260505063112 15 153 1.6 3.2 0.00 0.00 0.00 73 1010.5
20260505062609 15 166 1.6 3.2 0.00 0.00 0.00 73 1010.6
20260505062106 15 133 0.0 1.6 0.00 0.00 0.00 72 1010.7
20260505061603 15 148 0.0 1.6 0.00 0.00 0.00 72 1010.5
20260505061101 15 144 3.2 3.2 0.00 0.00 0.00 73 1010.6
20260505060559 15 132 1.6 3.2 0.00 0.00 0.00 73 1010.6
20260505060055 14 158 1.6 3.2 0.00 0.00 0.00 73 1010.7
20260505055550 15 154 0.0 1.6 0.00 0.00 0.00 72 1010.7
20260505055048 14 143 3.2 3.2 0.00 0.00 0.00 72 1010.6
20260505054545 15 153 1.6 3.2 0.00 0.00 0.00 72 1010.7
20260505054043 14 157 1.6 3.2 0.00 0.00 0.00 72 1010.7
20260505053539 14 156 1.6 3.2 0.00 0.00 0.00 72 1010.8
20260505053036 14 184 0.0 3.2 0.00 0.00 0.00 72 1010.8
20260505052533 14 137 3.2 4.8 0.00 0.00 0.00 71 1010.8
20260505052031 14 194 1.6 3.2 0.00 0.00 0.00 71 1010.7
20260505051527 15 142 1.6 3.2 0.00 0.00 0.00 70 1010.8
20260505051026 15 142 0.0 1.6 0.00 0.00 0.00 69 1010.7
20260505050524 15 142 3.2 3.2 0.00 0.00 0.00 69 1010.7
20260505041451 15 176 3.2 4.8 0.00 0.00 0.00 66 1011.2
20260505040948 15 167 3.2 6.4 0.00 0.00 0.00 66 1011.1
20260505040446 15 151 1.6 4.8 0.00 0.00 0.00 66 1011.2
20260505035943 15 179 0.0 3.2 0.00 0.00 0.00 65 1011.0
20260505035438 15 160 1.6 6.4 0.00 0.00 0.00 65 1011.1
20260505034936 15 147 1.6 3.2 0.00 0.00 0.00 65 1011.1
20260505034432 15 172 1.6 4.8 0.00 0.00 0.00 65 1011.1
20260505033930 15 151 3.2 3.2 0.00 0.00 0.00 65 1011.3
20260505033426 15 157 4.8 4.8 0.00 0.00 0.00 65 1011.2
20260505032924 15 196 3.2 3.2 0.00 0.00 0.00 65 1011.2
20260505032421 15 141 1.6 4.8 0.00 0.00 0.00 66 1011.3
20260505031918 15 146 1.6 4.8 0.00 0.00 0.00 66 1011.3
20260505031415 15 146 3.2 3.2 0.00 0.00 0.00 66 1011.4
20260505030912 15 147 3.2 3.2 0.00 0.00 0.00 66 1011.4
20260505030407 15 160 0.0 1.6 0.00 0.00 0.00 66 1011.5
20260505025903 15 160 0.0 3.2 0.00 0.00 0.00 66 1011.5
20260505025401 15 160 1.6 1.6 0.00 0.00 0.00 66 1011.5
20260505024900 15 165 0.0 0.0 0.00 0.00 0.00 66 1011.5
20260505024357 15 158 0.0 3.2 0.00 0.00 0.00 65 1011.3
20260505023853 15 162 1.6 3.2 0.00 0.00 0.00 65 1011.5
20260505023350 15 169 1.6 3.2 0.00 0.00 0.00 65 1011.5
20260505022848 15 167 0.0 1.6 0.00 0.00 0.00 65 1011.4
20260505022344 15 158 0.0 1.6 0.00 0.00 0.00 65 1011.5
20260505021842 15 157 1.6 3.2 0.00 0.00 0.00 64 1011.6
20260505021338 15 148 3.2 3.2 0.00 0.00 0.00 64 1011.7
20260505020834 15 161 0.0 3.2 0.00 0.00 0.00 64 1011.6
20260505020330 15 185 1.6 3.2 0.00 0.00 0.00 64 1011.6
20260505015827 15 158 1.6 3.2 0.00 0.00 0.00 64 1011.7
20260505015324 15 165 1.6 1.6 0.00 0.00 0.00 64 1011.5
20260505014821 15 211 1.6 3.2 0.00 0.00 0.00 63 1011.7
20260505014318 15 169 0.0 9.7 0.00 0.00 0.00 62 1011.7
20260505013815 15 153 4.8 6.4 0.00 0.00 0.00 62 1011.6
20260505013312 15 217 4.8 4.8 0.00 0.00 0.00 61 1011.5
20260505012810 16 151 3.2 4.8 0.00 0.00 0.00 61 1011.5
20260505012308 16 163 4.8 6.4 0.00 0.00 0.00 60 1011.5
20260505011803 16 147 4.8 11.3 0.00 0.00 0.00 59 1011.3
20260505011301 16 148 1.6 4.8 0.00 0.00 0.00 59 1011.3
20260505010756 16 156 1.6 3.2 0.00 0.00 0.00 57 1011.2
20260505010252 16 158 3.2 6.4 0.00 0.00 0.00 56 1011.2
20260505005749 16 151 1.6 4.8 0.00 0.00 0.00 54 1011.3
20260505005246 16 161 4.8 4.8 0.00 0.00 0.00 54 1011.3
20260505004743 16 155 1.6 3.2 0.00 0.00 0.00 53 1011.1
20260505004239 17 150 3.2 3.2 0.00 0.00 0.00 53 1010.9
20260505003736 17 156 1.6 4.8 0.00 0.00 0.00 52 1011.0
20260505003234 17 157 1.6 4.8 0.00 0.00 0.00 52 1010.9
20260505002730 17 161 0.0 3.2 0.00 0.00 0.00 51 1010.9
20260505002228 17 160 3.2 4.8 0.00 0.00 0.00 51 1010.8
20260505001725 17 154 1.6 1.6 0.00 0.00 0.00 50 1010.7
20260505001223 18 171 0.0 4.8 0.00 0.00 0.00 49 1010.6
20260505000720 18 145 1.6 4.8 0.00 0.00 0.00 49 1010.6
20260505000218 18 150 4.8 9.7 0.00 0.00 0.00 48 1010.2
20260504235714 18 155 3.2 4.8 0.00 0.00 0.00 48 1010.4
20260504235210 18 159 3.2 11.3 0.00 0.00 0.00 48 1010.3
20260504234707 18 161 1.6 6.4 0.00 0.00 0.00 47 1010.2
20260504234204 18 160 0.0 6.4 0.00 0.00 0.00 47 1010.1
20260504233700 19 153 6.4 6.4 0.00 0.00 0.00 46 1010.1
20260504233156 19 196 4.8 11.3 0.00 0.00 0.00 45 1010.2
20260504232654 20 137 3.2 6.4 0.00 0.00 0.00 45 1010.2
20260504232151 20 146 1.6 11.3 0.00 0.00 0.00 45 1010.1
20260504231648 20 131 9.7 14.5 0.00 0.00 0.00 45 1010.1
20260504231144 20 156 4.8 6.4 0.00 0.00 0.00 44 1010.0
20260504230640 20 185 3.2 4.8 0.00 0.00 0.00 43 1009.9
20260504230139 21 215 3.2 11.3 0.00 0.00 0.00 40 1010.0
20260504225637 21 151 1.6 3.2 0.00 0.00 0.00 33 1009.9
20260504225133 21 138 4.8 6.4 0.00 0.00 0.00 32 1009.8
20260504224630 21 133 1.6 6.4 0.00 0.00 0.00 32 1009.8
20260504224126 22 226 0.0 1.6 0.00 0.00 0.00 31 1009.8
20260504223624 22 156 0.0 4.8 0.00 0.00 0.00 31 1009.7
20260504223119 22 197 3.2 9.7 0.00 0.00 0.00 31 1009.7
20260504222616 22 141 0.0 3.2 0.00 0.00 0.00 31 1009.5
20260504222114 22 275 1.6 3.2 0.00 0.00 0.00 31 1009.4
20260504221611 22 142 3.2 6.4 0.00 0.00 0.00 31 1009.5
20260504221108 22 163 0.0 3.2 0.00 0.00 0.00 30 1009.7
20260504220604 22 186 0.0 3.2 0.00 0.00 0.00 30 1009.6
20260504215557 23 235 1.6 3.2 0.00 0.00 0.00 29 1009.8
20260504215055 23 172 1.6 9.7 0.00 0.00 0.00 29 1009.6
20260504214551 23 138 3.2 3.2 0.00 0.00 0.00 29 1009.6
20260504214047 24 168 0.0 1.6 0.00 0.00 0.00 29 1009.6
20260504213544 23 172 0.0 1.6 0.00 0.00 0.00 29 1009.7
20260504213041 23 202 1.6 3.2 0.00 0.00 0.00 28 1009.8
20260504212537 24 229 1.6 3.2 0.00 0.00 0.00 27 1009.8
20260504212034 23 329 1.6 3.2 0.00 0.00 0.00 29 1009.9
20260504211531 23 208 1.6 4.8 0.00 0.00 0.00 28 1010.0
20260504211028 23 308 3.2 4.8 0.00 0.00 0.00 28 1009.9
20260504210525 24 245 1.6 4.8 0.00 0.00 0.00 28 1009.9
20260504210022 24 283 3.2 9.7 0.00 0.00 0.00 28 1010.0
20260504205520 24 228 0.0 3.2 0.00 0.00 0.00 28 1009.8
20260504205018 25 256 3.2 12.9 0.00 0.00 0.00 27 1009.8
20260504204515 24 233 1.6 3.2 0.00 0.00 0.00 27 1009.7
20260504204014 24 320 6.4 6.4 0.00 0.00 0.00 27 1009.6
20260504203512 24 194 1.6 9.7 0.00 0.00 0.00 27 1009.8
20260504203009 24 223 0.0 6.4 0.00 0.00 0.00 27 1009.7
20260504202504 24 135 1.6 4.8 0.00 0.00 0.00 28 1009.7
20260504202001 25 183 1.6 4.8 0.00 0.00 0.00 28 1009.8
20260504201458 24 172 3.2 4.8 0.00 0.00 0.00 27 1009.7
20260504200956 23 238 1.6 3.2 0.00 0.00 0.00 28 1009.8
20260504200452 24 312 3.2 4.8 0.00 0.00 0.00 28 1009.9
20260504195949 24 305 1.6 6.4 0.00 0.00 0.00 27 1009.9
20260504195445 24 173 0.0 3.2 0.00 0.00 0.00 28 1010.2
20260504194942 24 213 1.6 3.2 0.00 0.00 0.00 28 1010.1
20260504194438 24 143 4.8 14.5 0.00 0.00 0.00 28 1010.2
20260504193934 24 106 1.6 4.8 0.00 0.00 0.00 28 1010.1
20260504193431 24 263 4.8 6.4 0.00 0.00 0.00 28 1010.5
20260504192930 24 42 3.2 6.4 0.00 0.00 0.00 28 1010.5
20260504192427 24 91 0.0 6.4 0.00 0.00 0.00 28 1010.4
20260504191926 24 258 1.6 4.8 0.00 0.00 0.00 28 1010.5
20260504191424 24 286 3.2 3.2 0.00 0.00 0.00 28 1010.5
20260504190918 24 163 3.2 9.7 0.00 0.00 0.00 30 1010.5
20260504190414 25 329 4.8 11.3 0.00 0.00 0.00 27 1010.8
20260504185911 24 55 3.2 4.8 0.00 0.00 0.00 28 1010.9
20260504185409 24 265 3.2 6.4 0.00 0.00 0.00 27 1010.9
20260504184904 23 293 3.2 4.8 0.00 0.00 0.00 30 1010.9
20260504184400 23 184 1.6 6.4 0.00 0.00 0.00 29 1011.2
20260504183856 23 216 3.2 11.3 0.00 0.00 0.00 29 1011.2
20260504183354 24 243 6.4 11.3 0.00 0.00 0.00 28 1011.2
20260504182851 24 157 1.6 3.2 0.00 0.00 0.00 28 1011.2
20260504182348 24 259 4.8 6.4 0.00 0.00 0.00 29 1011.2
20260504181845 24 164 1.6 3.2 0.00 0.00 0.00 29 1011.3
20260504181343 23 169 3.2 4.8 0.00 0.00 0.00 29 1011.3
20260504180841 23 98 0.0 3.2 0.00 0.00 0.00 29 1011.5
20260504180339 22 341 6.4 11.3 0.00 0.00 0.00 31 1011.5
20260504175837 23 155 4.8 4.8 0.00 0.00 0.00 30 1011.6
20260504175334 23 143 0.0 9.7 0.00 0.00 0.00 29 1011.7
20260504174832 23 341 6.4 11.3 0.00 0.00 0.00 29 1011.6
20260504174329 23 251 3.2 9.7 0.00 0.00 0.00 28 1011.6
20260504173826 23 182 1.6 3.2 0.00 0.00 0.00 31 1011.7
20260504173323 22 229 3.2 6.4 0.00 0.00 0.00 31 1012.0
20260504172820 22 181 4.8 14.5 0.00 0.00 0.00 31 1011.9
20260504172316 22 324 3.2 17.7 0.00 0.00 0.00 31 1012.0
20260504171812 23 137 1.6 9.7 0.00 0.00 0.00 32 1012.0
20260504171310 23 174 1.6 6.4 0.00 0.00 0.00 31 1012.2
20260504170807 22 245 1.6 6.4 0.00 0.00 0.00 31 1012.3
20260504170303 22 123 3.2 6.4 0.00 0.00 0.00 32 1012.2
20260504160222 22 237 4.8 12.9 0.00 0.00 0.00 29 1013.0
20260504150653 20 154 1.6 4.8 0.00 0.00 0.00 37 1013.6
20260504150149 20 177 3.2 9.7 0.00 0.00 0.00 37 1013.6
20260504141118 18 154 3.2 4.8 0.00 0.00 0.00 41 1013.8
20260504140615 18 175 11.3 14.5 0.00 0.00 0.00 41 1013.8
20260504140110 18 318 3.2 4.8 0.00 0.00 0.00 41 1013.9
20260504130539 15 182 3.2 3.2 0.00 0.00 0.00 52 1014.5
20260504110426 8 165 1.6 3.2 0.00 0.00 0.00 73 1015.2
20260504100343 6 192 0.0 1.6 0.00 0.00 0.00 72 1015.1
20260504081736 5 169 0.0 0.0 0.00 0.00 0.00 70 1014.8
20260504081233 5 169 0.0 0.0 0.00 0.00 0.00 70 1014.9
20260504080729 5 169 0.0 0.0 0.00 0.00 0.00 69 1014.8
20260504080226 5 169 0.0 0.0 0.00 0.00 0.00 69 1014.7
20260504070153 6 167 0.0 0.0 0.00 0.00 0.00 65 1014.5